User: anonymous
Location: Unspecified
(0.0000°N, 0.0000°E)
Time: 20:44:02
(UTC+00:00)
Language:

SWISSCUBE - Orbit

View from above orbital plane
View from above orbital plane
View from above satellite
View from above satellite

Ground track
Ground track

The orbit data is extracted from the following two-line orbital elements,

1 35932U 09051B   14108.19949380  .00001511  00000-0  36669-3 0  2796
2 35932 098.3723 220.4424 0008018 197.3637 162.7286 14.54318807242176
Epoch (UTC): 18 April 2014 04:47:16
Eccentricity: 0.0008018
inclination: 98.3723°
perigee height: 706 km
apogee height: 717 km
right ascension of ascending node: 220.4424°
argument of perigee: 197.3637°
revolutions per day: 14.54318807
mean anomaly at epoch: 162.7286°
orbit number at epoch: 24217

The dashed part of the orbit path shows where the satellite is in the earth's shadow,  

DLR